Flight Track Log - Related Links

Times and Time Zones

All times are in EDT time to prevent confusion due to time zone crossing. See the VH-VVI flight status page for this flight to view local times or setup timezone preferences in your user account.

Time Position Orientation Groundspeed Altitude Reporting Facility
EDT Latitude Longitude Course Direction KTS MPH feet Rate Location/Type
06:08PM -30.4755 157.9728 290° West  Level Estimated
06:09PM -30.4258 157.8712 300° West  Level Estimated
06:10PM -30.3759 157.7697 300° West  Level Estimated
06:10PM -30.0167 157.7408 300° West 346 398 43,100  Level Aus ATC (RADAR)
06:12PM -29.9152 157.5204 298° West 334 384 43,100  Level Aus ATC (RADAR)
06:14PM -29.8376 157.3563 299° West 337 388 43,100  Level Aus ATC (RADAR)
06:15PM -29.7859 157.2296 295° West 339 390 43,100  Level Aus ATC (RADAR)
06:16PM -29.7315 157.1036 296° West 340 391 43,100 -20 Level Aus ATC (RADAR)
06:20PM -29.5737 156.7342 296° West 339 390 43,000  Descending Aus ATC (RADAR)
06:22PM -29.5128 156.5950 297° West 333 383 43,100 38 Climbing Aus ATC (RADAR)
06:23PM -29.4561 156.4657 297° West 330 380 43,100  Level Aus ATC (RADAR)
06:23PM -29.4460 156.4414 296° West 329 379 43,100  Level Aus ATC (RADAR)
06:25PM -29.3832 156.2967 296° West 328 377 43,100  Level Aus ATC (RADAR)
06:27PM -29.2736 156.0486 297° West 328 377 43,100  Level Aus ATC (RADAR)
06:28PM -29.2174 155.9196 296° West 331 381 43,100  Level Aus ATC (RADAR)
06:29PM -29.2068 155.8957 297° West 330 380 43,100  Level Aus ATC (RADAR)
06:30PM -29.1428 155.7509 297° West 329 379 43,100  Level Aus ATC (RADAR)
06:33PM -29.0312 155.5014 297° West 332 382 43,100 -416 Level Aus ATC (RADAR)
06:34PM -28.9693 155.3587 296° West 329 379 41,400 -1,400 Descending Aus ATC (RADAR)
06:36PM -28.9073 155.2242 298° West 306 352 38,900 -1,714 Descending Aus ATC (RADAR)
06:36PM -28.8977 155.2026 297° West 303 349 38,400 -1,673 Descending Aus ATC (RADAR)
06:39PM -28.7994 154.9784 297° West 339 390 34,300 -1,769 Descending Aus ATC (RADAR)
06:40PM -28.7307 154.8296 298° West 377 434 31,500 -2,000 Descending Aus ATC (RADAR)
06:40PM -28.7184 154.8030 298° West 377 434 31,000 -1,596 Descending Aus ATC (RADAR)
06:44PM -28.5933 154.5272 297° West 378 435 25,700 -2,007 Descending Aus ATC (RADAR)
06:45PM -28.4837 154.2885 298° West 371 427 21,300 -2,493 Descending Aus ATC (RADAR)
06:47PM -28.3945 154.0773 296° West 367 422 17,100 -1,980 Descending Aus ATC (RADAR)
06:48PM -28.3093 153.9557 308° West 363 418 14,700 -1,740 Descending Aus ATC (RADAR)
06:49PM -28.2860 153.9275 313° West 364 419 14,200 -1,800 Descending Aus ATC (RADAR)
06:52PM -28.1098 153.7037 312° West 287 330 9,000 -1,656 Descending Aus ATC (RADAR)
06:53PM -28.0272 153.5984 312° West 221 254 6,500 -1,182 Descending Aus ATC (RADAR)
06:56PM -27.9792 153.4538 291° West 189 217 3,800 -1,047 Descending Aus ATC (RADAR)
06:57PM -28.0433 153.4572 177° South 180 207 2,400 -1,020 Descending Aus ATC (RADAR)
06:58PM -28.0580 153.4627 162° South 170 196 2,100 -764 Descending Aus ATC (RADAR)
06:59PM -28.1098 153.4808 163° South 118 136 1,000 -733 Descending Aus ATC (RADAR)
07:03PM -28.1644 153.5047 159° South  Level Estimated
07:10PM -28.1644 153.5047 156° South  Level Estimated

Login

Don't have an account? Register now (free) for customized features, flight alerts, and more!